Temperature
6 4 4 4 5 6 6 5 5 6 6 6 6 6 6 6 6 7 7 7 7 8 8 8 8 9 9 9 9 9 9 9 9 10 10 10 10 10 10 10 11 10 10 10
4 4 5 6 6 6 6 5 5 5 6 6 5 5 6 6 6 6 7 7 7 7 8 8 8 8 9 9 9 9 9 9 9 9 9 9 9 9 10 10 10 10 10 10
4 5 6 6 5 6 5 5 5 5 5 6 6 5 5 6 6 6 6 7 7 7 7 7 8 8 8 8 8 8 8 8 9 9 9 9 9 9 9 9 10 10 10 10
4 5 6 5 5 5 5 5 5 5 4 4 5 4 5 5 5 6 6 6 6 7 7 7 7 7 7 8 8 8 8 8 8 8 8 8 8 8 9 9 9 9 9 9
4 4 5 5 5 5 5 5 5 5 4 3 4 4 4 5 5 5 5 6 6 6 7 7 7 7 7 7 7 7 7 7 7 7 8 8 8 8 8 8 8 9 9 9
4 4 4 5 5 5 5 4 4 3 3 3 4 3 4 3 4 4 4 5 5 6 6 7 7 7 7 7 7 7 7 7 7 7 7 7 7 8 8 8 8 8 8 8
3 4 4 5 4 4 4 3 3 3 2 3 4 4 4 4 3 4 4 5 5 5 6 6 6 6 6 6 6 6 6 6 6 6 7 7 7 7 7 7 7 7 8 8
2 3 3 4 4 4 3 3 3 3 3 3 3 3 3 4 4 4 4 4 5 5 5 5 6 6 6 6 6 6 6 6 6 6 6 6 7 7 7 7 7 7 7 7
1 2 3 4 4 4 3 2 3 2 2 2 3 3 3 4 3 3 3 3 3 4 4 5 5 5 5 5 5 5 5 5 5 5 6 6 6 6 6 6 6 6 7 7
1 1 2 3 4 4 3 2 1 2 2 3 3 2 3 2 2 2 2 2 3 3 4 4 4 4 4 5 5 5 5 5 5 5 5 5 5 6 6 6 6 6 6 6
1 1 1 2 2 2 2 2 1 1 1 2 2 3 3 2 2 1 1 2 2 2 3 3 4 4 4 4 4 4 4 4 4 4 5 5 5 5 5 5 5 5 6 6
1 -1 -0 1 2 2 2 2 1 1 1 1 1 2 3 2 1 1 1 2 2 2 2 3 3 3 3 3 3 3 4 4 4 4 4 4 4 5 5 5 5 5 5 5
0 -1 -0 1 1 1 1 1 1 0 -0 -0 0 2 2 1 1 1 1 1 1 1 2 2 2 2 2 3 3 3 3 3 3 3 3 4 4 4 4 4 4 5 5 5
1 -2 -1 1 1 -0 -0 0 0 -0 -0 -0 0 1 1 1 0 0 0 1 1 1 1 1 2 2 2 2 2 2 2 2 3 3 3 3 3 3 4 4 4 4 4 4
-1 -2 -2 -1 -0 -0 -0 0 0 -0 -0 -0 0 0 1 0 -0 0 0 0 0 0 0 1 1 1 1 1 2 2 2 2 2 2 2 3 3 3 3 3 3 4 4 4
-2 -2 -2 -1 -0 -0 -0 0 0 -0 -0 -0 0 0 0 0 0 -0 -0 -1 -1 -1 -1 -0 -0 0 1 1 1 1 2 2 2 2 2 2 2 2 3 3 3 3 3 3
-3 -3 -3 -2 -2 -1 -1 -1 -1 -1 -1 -1 -1 -0 -1 -1 -1 -1 -1 -1 -1 -1 -1 -1 -1 -1 -0 0 0 1 1 1 1 1 2 2 2 2 2 2 2 2 3 3
-4 -4 -4 -3 -2 -1 0 -1 -1 -1 -1 -2 -1 -1 -1 -1 -1 -0 -1 -1 -1 -1 -1 -1 -1 -1 -1 -0 0 0 0 1 1 1 1 1 1 1 2 2 2 2 2 2
-3 -3 -4 -4 -3 -2 -1 -1 -2 -2 -2 -2 -2 -2 -1 -1 -1 -1 -1 -1 -1 -2 -2 -1 -1 -1 -1 -1 -0 -0 -0 -0 0 0 0 1 1 1 1 1 1 1 1 2
-4 -4 -4 -4 -3 -1 -0 -1 -2 -2 -2 -2 -3 -3 -2 -2 -3 -2 -1 -2 -2 -2 -2 -2 -2 -1 -1 -1 -1 -0 -0 -0 -0 -0 0 0 0 1 1 1 1 1 1 1
-4 -5 -5 -4 -4 -2 -2 -2 -2 -2 -2 -2 -2 -2 -3 -3 -3 -2 -2 -2 -2 -2 -2 -2 -2 -2 -2 -1 -1 -1 -1 -1 -1 -1 -0 -0 -0 0 0 0 0 0 1 1
-4 -5 -5 -5 -4 -2 -2 -3 -3 -2 -2 -2 -2 -2 -2 -2 -2 -2 -2 -3 -3 -2 -2 -2 -2 -2 -2 -2 -2 -2 -1 -1 -1 -1 -1 -1 -1 -0 -0 -0 -0 -0 0 0
-5 -4 -4 -4 -3 -2 -2 -2 -1 -1 -2 -2 -2 -2 -3 -3 -3 -3 -3 -3 -3 -3 -3 -3 -3 -2 -2 -2 -2 -2 -2 -2 -2 -2 -1 -1 -1 -1 -1 -1 -1 -1 -1 -1
-5 -5 -5 -5 -4 -3 -2 -2 -1 -2 -2 -2 -2 -3 -3 -3 -3 -3 -3 -3 -3 -3 -3 -3 -3 -3 -3 -3 -3 -2 -2 -2 -2 -2 -2 -2 -2 -1 -1 -1 -1 -1 -1 -1
-4 -5 -5 -5 -4 -4 -2 -2 -2 -2 -2 -2 -3 -3 -3 -3 -3 -4 -4 -4 -4 -3 -3 -3 -3 -3 -3 -3 -3 -3 -3 -3 -3 -3 -2 -2 -2 -2 -2 -2 -2 -2 -2 -2
-5 -5 -5 -4 -3 -4 -2 -1 -2 -2 -3 -3 -3 -3 -3 -4 -4 -4 -4 -4 -4 -4 -4 -4 -4 -4 -3 -3 -3 -3 -3 -3 -3 -3 -3 -3 -3 -3 -2 -2 -2 -2 -2 -2
Wind_Speed
3 4 1 2 3 3 3 4 7 7 5 5 7 10 10 6 4 5 5 5 5 6 5 3 3 3 2 2 3 4 4 4 3 3 2 2 1 1 2 2 4 5 5 6
4 1 3 3 2 3 4 5 6 7 4 4 6 10 9 5 5 5 5 5 5 5 3 2 2 2 2 2 2 3 4 4 3 2 2 2 2 2 2 2 3 4 5 6
1 3 3 2 2 2 4 4 4 6 7 3 4 6 6 5 3 4 4 4 4 4 4 3 1 2 1 1 3 3 3 3 3 3 2 2 1 1 0 1 2 3 4 5
1 3 2 2 3 2 4 3 4 4 3 4 1 4 7 5 5 5 5 4 3 3 3 3 2 2 2 3 2 2 2 2 2 3 3 4 3 2 2 2 2 2 3 4
2 2 2 2 3 1 4 4 4 3 2 4 2 2 6 3 5 6 6 4 2 3 2 2 2 2 2 1 1 2 2 2 2 3 4 4 3 2 1 1 1 2 2 3
2 2 1 2 3 2 2 3 3 3 2 3 3 3 5 3 5 6 6 5 3 3 3 1 1 1 1 0 0 1 1 1 2 3 3 4 4 3 3 3 2 2 1 1
5 4 3 1 3 4 4 4 3 4 2 5 2 2 5 5 5 4 4 4 3 2 2 1 1 1 0 0 0 1 1 1 1 2 3 4 4 4 5 4 4 3 2 2
2 5 4 2 1 1 1 2 2 2 4 4 2 3 4 4 5 4 3 3 3 3 3 2 1 1 1 1 1 1 2 2 1 2 3 3 3 3 3 3 3 4 3 3
1 5 4 3 2 0 0 1 2 2 2 3 4 4 5 5 7 8 7 6 5 5 4 4 3 2 1 1 2 2 2 2 2 2 2 2 2 3 3 3 3 3 3 3
3 3 5 4 3 3 1 2 3 2 1 3 4 3 3 6 7 7 7 7 6 6 5 5 3 2 2 2 2 1 2 2 2 1 1 1 2 2 2 2 3 3 3 3
1 2 4 3 1 2 1 1 1 1 2 2 3 5 3 3 4 5 6 6 6 5 5 5 4 3 2 3 2 1 1 0 0 1 1 1 1 1 1 1 2 3 2 2
1 2 3 5 4 2 1 2 3 2 3 2 3 5 4 3 3 4 6 6 6 6 5 4 3 3 3 3 3 2 1 1 1 1 1 1 0 0 1 1 1 2 2 2
2 3 2 5 3 4 1 1 1 1 1 2 3 6 4 5 6 6 6 7 7 6 6 4 4 4 3 3 2 2 2 2 2 1 1 0 0 1 1 1 1 1 1 1
2 2 4 6 5 3 4 4 2 2 3 4 7 9 9 9 8 7 7 7 6 6 5 5 4 4 4 4 3 2 2 2 2 1 1 1 1 1 1 1 1 1 0 1
3 2 4 7 7 5 6 7 5 6 6 7 8 9 10 8 7 6 6 7 6 7 7 6 5 4 5 4 4 3 2 2 2 1 2 2 1 1 0 0 1 1 1 1
1 1 2 5 5 6 8 9 9 8 7 9 9 10 7 7 4 5 5 6 6 6 7 7 7 6 6 4 4 3 3 3 2 1 2 3 2 1 0 0 1 1 1 1
1 2 1 5 6 4 6 7 8 5 5 5 8 8 6 6 6 5 5 5 5 6 7 6 7 6 6 5 4 3 3 2 2 1 2 2 2 1 0 0 0 0 1 2
4 3 2 2 4 4 6 1 3 5 6 4 5 6 5 6 7 4 2 3 5 6 6 6 6 6 6 5 4 3 2 2 2 2 2 2 2 2 1 0 0 0 1 1
5 5 2 1 3 8 6 2 1 3 6 3 5 6 6 6 4 3 3 4 4 5 5 6 6 5 5 5 4 3 3 2 2 2 3 2 2 2 1 1 1 1 0 1
3 3 3 2 3 6 5 2 1 1 5 3 3 6 5 4 3 5 5 6 6 5 5 5 5 5 4 4 3 3 3 3 3 3 3 3 2 2 1 1 1 1 0 1
1 1 3 4 5 8 5 2 2 2 6 5 4 5 4 3 5 6 6 6 6 6 5 5 4 4 4 4 3 3 3 3 3 3 3 2 2 2 1 0 1 1 1 1
6 5 5 4 5 8 3 3 4 7 3 3 4 4 4 5 5 5 5 5 6 6 5 4 4 4 4 3 2 2 3 3 3 3 2 2 2 2 2 1 1 1 1 1
7 8 5 8 8 5 4 6 5 3 4 4 4 5 4 4 5 5 5 5 5 5 5 4 4 4 4 3 2 2 3 3 3 3 3 2 3 2 2 1 1 1 1 1
5 4 4 5 8 6 6 6 5 4 5 5 5 4 4 4 5 5 5 5 5 5 5 4 4 4 4 4 3 2 3 3 3 3 3 2 2 2 3 2 1 1 1 1
6 5 4 7 7 6 6 6 6 5 4 4 4 4 4 4 4 4 4 5 5 5 4 4 3 3 4 4 3 3 3 2 2 2 2 3 2 2 2 3 2 2 2 1
6 8 7 8 7 6 6 5 4 4 5 5 4 4 3 3 4 4 4 4 4 4 4 4 4 3 4 3 3 3 3 2 1 2 2 2 2 2 2 2 3 5 3 4
Wind_Direction
27 64 43 254 224 239 256 253 275 278 287 293 273 279 287 294 297 282 271 253 255 253 249 221 207 188 175 182 180 180 178 167 156 154 158 155 193 214 184 200 178 174 174 171
37 341 256 261 269 267 271 267 273 291 300 289 274 278 282 298 283 274 267 256 248 261 244 232 193 175 171 181 196 185 180 178 171 173 174 161 169 224 204 194 187 173 172 174
176 268 290 312 321 296 279 249 270 288 315 309 289 294 294 320 308 302 285 262 241 236 220 227 196 191 181 196 202 188 182 186 176 155 130 115 103 89 164 190 199 181 176 175
267 287 318 321 315 299 274 256 276 292 325 300 327 289 291 312 323 322 308 295 264 265 227 210 181 189 207 214 202 184 177 184 180 163 155 159 172 200 220 206 217 201 181 173
295 306 333 310 294 296 261 297 287 271 252 302 283 236 291 337 320 308 305 304 294 284 241 208 195 200 218 214 196 195 171 176 189 192 182 180 185 198 191 165 188 208 187 176
276 290 273 265 301 284 307 350 4 32 65 300 249 201 289 308 293 303 308 311 301 300 297 260 210 175 189 144 125 170 168 183 198 200 199 190 186 182 175 182 192 215 207 196
333 320 320 340 344 0 36 45 15 355 349 261 277 212 263 294 303 285 287 302 315 305 300 309 355 3 136 210 250 193 180 207 216 206 206 202 195 190 187 194 200 212 208 220
340 301 305 340 288 277 328 125 155 238 257 290 312 246 262 310 334 349 4 2 356 342 339 333 305 261 246 250 245 214 201 217 231 223 220 206 195 202 205 205 209 219 216 216
206 272 313 322 317 164 102 199 183 164 283 286 274 285 300 343 356 4 10 12 359 341 346 347 349 356 339 280 268 228 215 220 226 231 231 208 201 213 215 210 222 225 230 226
178 263 297 316 351 357 163 150 81 112 249 282 290 283 294 326 330 344 352 347 339 340 342 338 340 342 335 302 277 239 203 212 217 219 226 236 218 221 223 202 218 230 236 234
125 198 305 336 258 261 45 51 118 161 201 219 278 277 271 286 310 326 325 326 329 329 332 333 334 332 328 329 337 327 317 352 277 249 251 238 226 234 252 225 224 228 225 226
136 137 268 267 278 304 173 186 150 175 258 234 251 275 306 308 326 332 327 326 330 333 332 330 340 354 347 336 339 349 1 359 330 297 271 235 214 200 249 269 263 254 231 228
122 112 342 335 335 354 330 283 172 176 169 215 234 269 322 345 346 340 332 332 334 336 335 347 358 359 342 327 334 341 352 343 332 338 316 317 335 246 251 265 276 282 275 263
97 151 194 221 243 251 276 282 256 172 213 245 243 266 298 321 327 326 326 330 335 339 339 346 353 348 344 337 331 335 339 337 340 359 2 311 279 266 257 262 278 267 280 265
97 210 239 254 263 259 264 267 249 224 222 231 261 264 281 299 304 305 317 330 342 345 347 347 346 342 343 345 345 345 339 340 351 4 352 328 313 302 307 341 355 354 329 287
87 213 277 282 273 268 271 268 257 250 246 250 267 273 285 301 308 315 321 329 334 335 338 343 342 338 338 335 333 339 342 339 358 358 332 329 332 333 341 8 21 7 341 323
168 156 265 279 310 325 277 252 228 227 225 225 247 266 308 315 308 301 304 317 321 328 330 333 333 328 325 323 323 325 322 329 348 338 336 337 330 321 275 95 62 348 335 349
167 156 186 285 353 261 251 257 219 231 244 240 264 292 301 293 293 280 279 312 321 323 323 324 324 323 322 324 332 326 328 340 343 340 341 342 340 318 313 91 72 11 5 338
176 162 168 194 272 279 289 287 231 229 269 256 267 292 309 326 331 304 318 321 304 303 306 307 310 311 317 321 327 340 349 348 355 354 347 341 335 333 344 25 5 0 355 331
94 133 154 177 232 256 265 278 273 102 285 283 275 287 304 346 323 292 312 319 316 317 315 315 316 317 321 320 333 357 352 354 351 344 338 337 336 339 333 319 324 336 343 336
143 164 187 203 232 265 262 266 94 159 264 294 270 272 268 250 251 280 304 311 312 314 314 317 322 322 318 323 348 357 350 342 330 329 336 340 338 336 318 326 341 343 4 16
183 184 199 181 214 255 222 139 187 229 265 270 265 266 264 270 286 296 300 305 313 318 322 325 330 326 326 337 360 354 339 333 337 342 347 345 344 345 360 33 6 4 40 42
204 196 193 200 220 253 205 211 229 219 246 259 262 273 268 276 286 297 299 302 309 314 320 325 327 329 333 339 359 346 332 340 349 355 354 355 358 4 8 28 14 11 30 36
244 195 200 248 260 258 255 252 255 241 243 258 260 263 261 268 279 290 298 304 311 316 321 326 332 335 333 337 353 339 330 344 359 359 354 0 13 16 14 8 0 6 355 346
219 183 208 250 269 283 261 243 247 253 259 270 271 261 257 260 276 282 292 299 305 314 321 328 327 321 319 329 342 340 342 353 2 356 355 1 11 21 15 13 7 345 324 310
205 194 198 233 229 219 252 253 244 245 259 261 265 271 272 257 262 276 282 291 301 311 322 330 330 325 319 329 334 334 339 352 356 353 357 357 3 12 20 23 12 8 0 2
Height
1499 1503 1505 1503 1501 1500 1500 1500 1499 1493 1489 1489 1485 1481 1476 1474 1473 1471 1469 1468 1468 1468 1468 1469 1470 1471 1471 1473 1474 1475 1476 1476 1478 1479 1480 1479 1481 1483 1485 1486 1488 1489 1491 1493
1504 1505 1501 1499 1499 1499 1498 1499 1497 1492 1488 1487 1484 1480 1474 1472 1471 1469 1468 1466 1466 1466 1465 1466 1467 1467 1468 1470 1471 1472 1473 1474 1475 1476 1477 1478 1479 1480 1482 1483 1484 1486 1488 1489
1504 1503 1499 1498 1498 1497 1496 1497 1495 1493 1489 1486 1485 1480 1473 1470 1469 1467 1466 1464 1464 1463 1463 1463 1464 1465 1466 1467 1469 1470 1470 1471 1472 1473 1474 1475 1476 1477 1478 1480 1481 1482 1484 1486
1504 1501 1499 1498 1497 1496 1496 1492 1492 1491 1493 1493 1489 1489 1474 1471 1468 1465 1464 1462 1461 1461 1462 1462 1463 1463 1464 1465 1467 1467 1468 1469 1470 1471 1471 1471 1472 1473 1474 1475 1477 1479 1480 1482
1504 1501 1500 1499 1497 1495 1494 1491 1491 1491 1493 1496 1490 1492 1479 1472 1470 1466 1464 1462 1461 1460 1460 1460 1461 1462 1463 1464 1464 1465 1466 1466 1467 1468 1469 1469 1470 1471 1471 1473 1474 1475 1476 1478
1504 1501 1500 1499 1496 1495 1493 1493 1492 1494 1498 1499 1489 1491 1483 1477 1472 1467 1464 1462 1460 1459 1459 1459 1460 1461 1461 1462 1462 1463 1463 1464 1464 1465 1466 1467 1467 1468 1468 1469 1471 1472 1473 1475
1507 1503 1500 1499 1498 1496 1496 1500 1503 1503 1507 1499 1487 1488 1483 1475 1471 1467 1464 1462 1460 1459 1459 1458 1458 1459 1459 1459 1460 1460 1461 1461 1461 1462 1463 1464 1464 1465 1465 1466 1467 1468 1469 1471
1514 1510 1502 1500 1500 1500 1499 1501 1506 1507 1505 1496 1488 1487 1480 1474 1470 1466 1464 1462 1460 1459 1458 1458 1458 1458 1457 1458 1458 1458 1458 1459 1459 1460 1460 1461 1462 1462 1463 1464 1464 1465 1466 1468
1517 1511 1503 1501 1499 1499 1500 1502 1502 1506 1506 1503 1492 1486 1477 1472 1469 1466 1464 1462 1461 1460 1459 1458 1457 1456 1456 1456 1456 1456 1456 1456 1457 1457 1458 1458 1459 1460 1460 1461 1462 1463 1463 1465
1514 1515 1507 1503 1500 1499 1500 1501 1506 1508 1506 1500 1491 1488 1483 1477 1473 1470 1466 1463 1461 1460 1458 1457 1456 1455 1455 1455 1455 1454 1454 1454 1454 1455 1455 1455 1456 1457 1458 1458 1459 1460 1460 1462
1513 1517 1512 1507 1504 1503 1502 1503 1504 1508 1507 1504 1497 1489 1478 1477 1474 1472 1468 1465 1462 1460 1458 1457 1455 1455 1454 1453 1452 1452 1452 1452 1452 1453 1453 1453 1454 1454 1455 1455 1456 1456 1457 1458
1513 1518 1517 1510 1504 1502 1501 1502 1505 1508 1508 1507 1502 1492 1476 1475 1473 1471 1469 1466 1463 1460 1458 1456 1455 1454 1453 1452 1451 1450 1450 1450 1450 1450 1451 1451 1452 1452 1453 1453 1454 1454 1454 1455
1513 1519 1519 1510 1510 1507 1505 1503 1503 1506 1507 1507 1504 1491 1476 1475 1473 1471 1469 1466 1463 1460 1458 1456 1454 1453 1452 1451 1450 1449 1449 1448 1449 1449 1449 1449 1449 1450 1451 1451 1451 1451 1452 1452
1511 1517 1518 1514 1509 1509 1507 1503 1502 1504 1507 1504 1496 1486 1478 1476 1474 1472 1469 1466 1463 1460 1458 1456 1454 1453 1452 1450 1449 1448 1448 1448 1447 1447 1447 1447 1447 1448 1449 1449 1449 1449 1449 1450
1512 1516 1514 1510 1506 1506 1504 1501 1500 1501 1499 1498 1490 1486 1479 1477 1476 1473 1469 1466 1463 1460 1458 1456 1454 1453 1451 1450 1448 1447 1446 1446 1446 1446 1445 1445 1446 1446 1446 1447 1447 1447 1448 1448
1513 1516 1514 1509 1503 1502 1500 1496 1495 1494 1494 1491 1487 1483 1477 1476 1474 1471 1469 1466 1463 1461 1458 1456 1454 1452 1450 1448 1447 1446 1445 1445 1444 1444 1444 1444 1444 1444 1444 1444 1445 1445 1446 1446
1514 1516 1516 1511 1506 1502 1499 1491 1490 1490 1488 1488 1486 1482 1477 1475 1472 1470 1468 1466 1464 1461 1459 1456 1454 1452 1449 1448 1446 1445 1444 1444 1443 1443 1442 1442 1442 1442 1442 1442 1443 1443 1443 1444
1513 1515 1518 1515 1512 1505 1491 1486 1486 1486 1484 1484 1481 1479 1476 1474 1470 1469 1467 1466 1463 1461 1458 1456 1453 1451 1449 1447 1445 1444 1443 1443 1442 1441 1441 1441 1441 1440 1440 1440 1440 1441 1441 1441
1507 1512 1517 1517 1515 1501 1489 1486 1486 1487 1483 1480 1479 1476 1474 1471 1468 1467 1466 1465 1463 1460 1458 1455 1453 1450 1448 1446 1444 1443 1442 1441 1441 1440 1439 1439 1439 1439 1439 1438 1439 1439 1439 1439
1508 1510 1515 1517 1512 1500 1487 1484 1482 1485 1483 1477 1476 1475 1473 1471 1471 1467 1464 1463 1460 1458 1456 1454 1451 1449 1447 1445 1443 1442 1441 1440 1439 1439 1438 1438 1438 1438 1437 1437 1437 1437 1437 1437
1511 1512 1514 1513 1511 1496 1485 1483 1483 1488 1482 1476 1474 1473 1471 1470 1470 1466 1463 1461 1459 1457 1454 1452 1450 1448 1446 1444 1443 1441 1440 1439 1439 1438 1437 1437 1437 1437 1436 1436 1436 1436 1435 1435
1506 1509 1510 1510 1508 1495 1481 1482 1483 1480 1475 1474 1472 1471 1469 1467 1465 1463 1461 1459 1457 1454 1452 1450 1448 1446 1445 1444 1442 1441 1440 1439 1438 1437 1436 1436 1436 1436 1435 1435 1434 1434 1434 1433
1498 1496 1495 1495 1489 1480 1477 1476 1475 1474 1473 1471 1470 1468 1467 1465 1463 1461 1459 1457 1455 1453 1451 1449 1447 1445 1444 1443 1441 1440 1439 1438 1436 1436 1435 1435 1435 1435 1434 1434 1433 1433 1432 1432
1490 1488 1490 1488 1479 1476 1474 1473 1472 1472 1470 1469 1468 1466 1464 1462 1461 1459 1457 1455 1453 1451 1449 1447 1446 1444 1442 1441 1440 1439 1438 1437 1436 1435 1434 1434 1434 1433 1433 1433 1432 1432 1431 1430
1482 1484 1484 1482 1475 1472 1469 1469 1469 1468 1467 1466 1465 1463 1462 1460 1459 1457 1455 1454 1452 1450 1448 1446 1445 1443 1441 1440 1439 1438 1437 1436 1435 1434 1434 1433 1433 1432 1432 1432 1432 1431 1430 1430
1475 1476 1477 1473 1468 1468 1465 1465 1465 1465 1464 1463 1462 1460 1459 1458 1457 1455 1454 1452 1450 1448 1447 1445 1443 1442 1440 1439 1438 1437 1436 1435 1435 1434 1433 1433 1432 1432 1431 1431 1430 1430 1429 1429